Weather History for New Delhi, India

Change the Weather History Date:

Tuesday, May 6, 2014

  Actual Average Record
Temperature  
Mean Temperature 86 °F -  
Max Temperature 93 °F 101 °F 113 °F (2006)
Min Temperature 78 °F 79 °F 68 °F (1997)
Cooling Degree Days 20    
Growing Degree Days 36 (Base 50)    
Moisture  
Dew Point 66 °F    
Average Humidity 53    
Maximum Humidity 70    
Minimum Humidity 32    
Precipitation  
Precipitation 0.00 in - - ()
Sea Level Pressure  
Sea Level Pressure 29.79 in    
Wind  
Wind Speed 7 mph ()    
Max Wind Speed 13 mph    
Max Gust Speed -    
Visibility 2.3 miles    
Events      
Averages and records for this station are not official NWS values.
T = Trace of Precipitation, MM = Missing Value Source: Averaged Metar Reports

Daily Weather History Graph

Daily Weather History Graph

Search for Another Location

Airport:

Trip Planner

Search our weather history database for the weather conditions in past years. The results will help you decide how hot, cold, wet, or windy it might be!

Date:

Astronomy

May. 06, 2014 Rise Set
Actual Time 5:37 AM IST 6:59 PM IST
Civil Twilight 5:12 AM IST 7:24 PM IST
Nautical Twilight 4:42 AM IST 7:54 PM IST
Astronomical Twilight 4:10 AM IST 8:26 PM IST
Moon 11:23 AM IST (5/6) No Moon Set
Length of Visible Light 14h 12m
Length of Day
13h 22m
Waxing Crescent, 42% of the Moon is Illuminated
May 6
Waxing Crescent
May 7
First Quarter
May 15
Full
May 21
Last Quarter
May 29
New

Hourly Weather History & Observations

Time (IST) Temp. Heat Index Dew Point Humidity Pressure Visibility Wind Dir Wind Speed Gust Speed Precip Events Conditions
12:00 AM 80.6 °F 83.9 °F 69.8 °F 70% 29.80 in 1.7 mi NNE 6.9 mph - N/A   Haze
12:30 AM 80.6 °F 83.9 °F 69.8 °F 70% 29.80 in 1.7 mi NNE 3.5 mph - N/A   Haze
1:00 AM 80.6 °F 83.9 °F 69.8 °F 70% 29.80 in 1.7 mi ENE 5.8 mph - N/A   Haze
1:30 AM 80.6 °F 83.9 °F 69.8 °F 70% 29.80 in 1.7 mi ENE 6.9 mph - N/A   Haze
2:00 AM 80.6 °F 83.9 °F 69.8 °F 70% 29.77 in 1.7 mi East 6.9 mph - N/A   Haze
2:30 AM 80.6 °F 83.9 °F 69.8 °F 70% 29.77 in 1.7 mi ESE 8.1 mph - N/A   Haze
3:00 AM 80.6 °F 83.9 °F 69.8 °F 70% 29.77 in 1.7 mi East 8.1 mph - N/A   Haze
3:30 AM 80.6 °F 83.9 °F 69.8 °F 70% 29.77 in 1.7 mi ESE 10.4 mph - N/A   Haze
4:00 AM 80.6 °F 83.9 °F 69.8 °F 70% 29.77 in 1.7 mi East 10.4 mph - N/A   Haze
4:30 AM 80.6 °F 83.9 °F 69.8 °F 70% 29.77 in 1.7 mi ESE 12.7 mph - N/A   Haze
5:00 AM 80.6 °F 83.9 °F 69.8 °F 70% 29.77 in 1.7 mi ESE 12.7 mph - N/A   Haze
5:30 AM 80.6 °F 83.2 °F 68.0 °F 65% 29.80 in 1.7 mi East 11.5 mph - N/A   Haze
6:00 AM 78.8 °F - 68.0 °F 69% 29.80 in 1.7 mi East 10.4 mph - N/A   Haze
7:00 AM 80.6 °F 83.2 °F 68.0 °F 65% 29.80 in 1.9 mi SE 11.5 mph - N/A   Haze
7:30 AM 80.6 °F 82.7 °F 66.2 °F 61% 29.83 in 1.9 mi ESE 10.4 mph - N/A   Haze
8:00 AM 82.4 °F 86.3 °F 69.8 °F 66% 29.83 in 2.2 mi East 9.2 mph - N/A   Haze
8:30 AM 84.2 °F 88.4 °F 69.8 °F 62% 29.86 in - East 10.4 mph - N/A   Haze
9:00 AM 84.2 °F 87.3 °F 68.0 °F 58% 29.86 in 2.8 mi East 10.4 mph - N/A   Haze
9:30 AM 84.2 °F 87.3 °F 68.0 °F 58% 29.86 in 2.8 mi East 6.9 mph - N/A   Haze
10:00 AM 86.0 °F 90.4 °F 69.8 °F 58% 29.86 in 2.8 mi East 8.1 mph - N/A   Haze
10:30 AM 87.8 °F 92.6 °F 69.8 °F 55% 29.86 in 2.8 mi SE 9.2 mph - N/A   Haze
11:00 AM 87.8 °F 89.4 °F 64.4 °F 46% 29.86 in 2.8 mi SE 9.2 mph - N/A   Haze
11:30 AM 89.6 °F 91.1 °F 64.4 °F 43% 29.86 in 2.8 mi SE 10.4 mph - N/A   Haze
12:00 PM 91.4 °F 92.1 °F 62.6 °F 38% 29.83 in 2.8 mi SE 10.4 mph - N/A   Haze
12:30 PM 91.4 °F 92.1 °F 62.6 °F 38% 29.83 in 2.8 mi ESE 10.4 mph - N/A   Haze
1:00 PM 91.4 °F 90.7 °F 59.0 °F 34% 29.83 in - East 8.1 mph - N/A   Haze
5:00 PM 93.2 °F 92.6 °F 59.0 °F 32% 29.71 in 3.1 mi East 9.2 mph - N/A   Haze
5:30 PM 93.2 °F 93.3 °F 60.8 °F 34% 29.71 in 3.1 mi East 6.9 mph - N/A   Haze
6:00 PM 93.2 °F 93.3 °F 60.8 °F 34% 29.71 in 3.1 mi ENE 6.9 mph - N/A   Haze
6:30 PM 91.4 °F 90.7 °F 59.0 °F 34% 29.71 in 2.8 mi NE 6.9 mph - N/A   Haze
7:00 PM 91.4 °F 90.7 °F 59.0 °F 34% 29.74 in 2.8 mi NE 5.8 mph - N/A   Haze
7:30 PM 91.4 °F 90.7 °F 59.0 °F 34% 29.74 in 2.5 mi East 6.9 mph - N/A   Haze
8:00 PM 89.6 °F 88.9 °F 59.0 °F 36% 29.74 in 2.5 mi ENE 6.9 mph - N/A   Haze
8:30 PM 89.6 °F 90.1 °F 62.6 °F 40% 29.74 in 2.2 mi East 6.9 mph - N/A   Haze
9:00 PM 87.8 °F 88.5 °F 62.6 °F 43% 29.74 in - East 5.8 mph - N/A   Haze
9:30 PM 87.8 °F 88.5 °F 62.6 °F 43% 29.74 in - ENE 9.2 mph - N/A   Haze
10:00 PM 87.8 °F 88.5 °F 62.6 °F 43% 29.74 in - East 8.1 mph - N/A   Haze
10:30 PM 86.0 °F 86.6 °F 62.6 °F 45% 29.77 in - East 4.6 mph - N/A   Haze
11:00 PM 86.0 °F 86.6 °F 62.6 °F 45% 29.77 in - East 3.5 mph - N/A   Haze
11:30 PM 86.0 °F 86.6 °F 62.6 °F 45% 29.77 in - ESE 3.5 mph - N/A   Haze